When you browse on this site, cookies collect data to enhance your experience and personalize the content and advertising you see.
Visit our Privacy Policy to learn more. By continuing to use the site, you agree to this use of cookies and data.
  • In Denmark
  • List of Countries
  • For 7 days
  • Water Temperature
  • Weather Map
  • Weather Widgets
  • user-avatar
    Login

    Hourly Weather Seyðisfjörður

    Today, 8 December, Sunday

    Time Temperature Precipitation Wind Pressure Humidity
    00:00 -6°C° 0.5 mm 5 mps 733 mmHg 96%
    01:00 -5°C° 0.5 mm 6 mps 733 mmHg 97%
    02:00 -4°C° 0.5 mm 6 mps 732 mmHg 97%
    03:00 -3°C° 0.6 mm 7 mps 732 mmHg 97%
    04:00 -4°C° 0.6 mm 8 mps 732 mmHg 96%
    05:00 -3°C° 0 mm 9 mps 732 mmHg 96%
    06:00 -3°C° 0.8 mm 9 mps 733 mmHg 96%
    07:00 -3°C° 0.8 mm 9 mps 734 mmHg 95%
    08:00 -3°C° 0.8 mm 9 mps 735 mmHg 95%
    09:00 -4°C° 0.8 mm 9 mps 736 mmHg 95%
    10:00 -4°C° 0.8 mm 9 mps 737 mmHg 95%
    11:00 -5°C° 0 mm 9 mps 738 mmHg 95%
    12:00 -6°C° 0.3 mm 8 mps 739 mmHg 94%
    13:00 -6°C° 0.3 mm 8 mps 740 mmHg 94%
    14:00 -7°C° 0.3 mm 7 mps 742 mmHg 94%
    15:00 -7°C° 0.2 mm 7 mps 743 mmHg 94%
    16:00 -6°C° 0.2 mm 6 mps 744 mmHg 93%
    17:00 -6°C° 0.2 mm 6 mps 744 mmHg 93%
    18:00 -7°C° 0.1 mm 5 mps 745 mmHg 93%
    19:00 -8°C° 0.1 mm 5 mps 746 mmHg 93%
    20:00 -9°C° 0.1 mm 4 mps 747 mmHg 92%
    21:00 -9°C° 0.1 mm 4 mps 748 mmHg 92%
    22:00 -10°C° 0.1 mm 4 mps 748 mmHg 91%
    23:00 -10°C° 0.1 mm 4 mps 749 mmHg 90%

    Tomorrow, 9 December, Monday

    Time Temperature Precipitation Wind Pressure Humidity
    00:00 -10°C° 0 mm 3 mps 749 mmHg 89%
    01:00 -10°C° 0 mm 3 mps 749 mmHg 88%
    02:00 -10°C° 0 mm 3 mps 750 mmHg 87%
    03:00 -10°C° 0 mm 3 mps 750 mmHg 85%
    04:00 -9°C° 0 mm 2 mps 750 mmHg 83%
    05:00 -9°C° 0 mm 2 mps 750 mmHg 81%
    06:00 -9°C° 0 mm 2 mps 750 mmHg 83%
    07:00 -10°C° 0 mm 3 mps 749 mmHg 85%
    08:00 -9°C° 0 mm 3 mps 749 mmHg 87%
    09:00 -9°C° 0 mm 3 mps 749 mmHg 87%
    10:00 -9°C° 0 mm 4 mps 748 mmHg 87%
    11:00 -9°C° 0 mm 4 mps 748 mmHg 87%
    12:00 -8°C° 0.1 mm 4 mps 747 mmHg 89%
    13:00 -7°C° 0.1 mm 4 mps 745 mmHg 90%
    14:00 -4°C° 0.1 mm 4 mps 744 mmHg 92%
    15:00 -5°C° 0.6 mm 6 mps 743 mmHg 93%
    16:00 -5°C° 0.6 mm 8 mps 742 mmHg 94%
    17:00 -4°C° 0.6 mm 10 mps 740 mmHg 94%
    18:00 -4°C° 2.5 mm 11 mps 739 mmHg 95%
    19:00 -3°C° 2.5 mm 12 mps 738 mmHg 96%
    20:00 -3°C° 2.5 mm 12 mps 736 mmHg 97%
    21:00 -2°C° 3.3 mm 10 mps 735 mmHg 98%
    22:00 -1°C° 3.3 mm 9 mps 733 mmHg 98%
    23:00 0°C° 3.3 mm 7 mps 731 mmHg 98%

    Day after tomorrow, 10 December, Tuesday

    Time Temperature Precipitation Wind Pressure Humidity
    00:00 0°C° 1.8 mm 7 mps 729 mmHg 99%
    01:00 +1°C° 1.8 mm 6 mps 727 mmHg 99%
    02:00 +1°C° 1.8 mm 5 mps 725 mmHg 99%
    03:00 +2°C° 2.2 mm 6 mps 723 mmHg 99%
    04:00 +2°C° 2.2 mm 6 mps 720 mmHg 99%
    05:00 +2°C° 2.2 mm 7 mps 718 mmHg 99%
    06:00 +2°C° 2.9 mm 6 mps 716 mmHg 99%
    07:00 +2°C° 2.9 mm 6 mps 715 mmHg 99%
    08:00 +2°C° 2.9 mm 5 mps 713 mmHg 99%
    09:00 +1°C° 0.2 mm 5 mps 712 mmHg 98%
    10:00 0°C° 0.2 mm 5 mps 711 mmHg 97%
    11:00 -1°C° 0.2 mm 5 mps 710 mmHg 96%
    12:00 -2°C° 0 mm 4 mps 710 mmHg 94%
    13:00 -3°C° 0 mm 4 mps 710 mmHg 92%
    14:00 -5°C° 0 mm 3 mps 710 mmHg 90%
    15:00 -5°C° 0 mm 3 mps 709 mmHg 89%
    16:00 -5°C° 0 mm 2 mps 709 mmHg 88%
    17:00 -4°C° 0 mm 1 mps 709 mmHg 87%
    18:00 -6°C° 0 mm 2 mps 709 mmHg 87%
    19:00 -6°C° 0 mm 2 mps 709 mmHg 88%
    20:00 -7°C° 0 mm 3 mps 709 mmHg 89%
    21:00 -6°C° 0 mm 3 mps 709 mmHg 88%
    22:00 -7°C° 0 mm 4 mps 709 mmHg 87%
    23:00 -7°C° 0 mm 4 mps 709 mmHg 86%

    11 December, Wednesday

    Time Temperature Precipitation Wind Pressure Humidity
    00:00 -7°C° 0.6 mm 5 mps 708 mmHg 89%
    01:00 -7°C° 0.6 mm 5 mps 708 mmHg 92%
    02:00 -8°C° 0.6 mm 6 mps 708 mmHg 95%
    03:00 -7°C° 2.3 mm 11 mps 708 mmHg 94%
    04:00 -7°C° 2.3 mm 16 mps 708 mmHg 94%
    05:00 -6°C° 2.3 mm 21 mps 708 mmHg 94%
    06:00 -5°C° 0.9 mm 19 mps 709 mmHg 93%
    07:00 -3°C° 0.9 mm 17 mps 710 mmHg 92%
    08:00 -3°C° 0.9 mm 15 mps 712 mmHg 91%
    09:00 -2°C° 0.3 mm 14 mps 714 mmHg 92%
    10:00 -2°C° 0.3 mm 12 mps 716 mmHg 94%
    11:00 -2°C° 0.3 mm 11 mps 718 mmHg 95%
    12:00 -3°C° 1.3 mm 12 mps 720 mmHg 95%
    13:00 -4°C° 1.3 mm 13 mps 721 mmHg 96%
    14:00 -5°C° 1.3 mm 15 mps 723 mmHg 96%
    15:00 -5°C° 1.5 mm 15 mps 724 mmHg 95%
    16:00 -7°C° 1.5 mm 16 mps 725 mmHg 94%
    17:00 -8°C° 1.5 mm 17 mps 727 mmHg 94%
    18:00 -8°C° 1.1 mm 16 mps 727 mmHg 94%
    19:00 -8°C° 1.1 mm 16 mps 728 mmHg 93%
    20:00 -9°C° 1.1 mm 15 mps 728 mmHg 93%
    21:00 -9°C° 0.9 mm 15 mps 729 mmHg 93%
    22:00 -9°C° 0.9 mm 14 mps 729 mmHg 94%
    23:00 -9°C° 0.9 mm 14 mps 729 mmHg 94%

    12 December, Thursday

    Time Temperature Precipitation Wind Pressure Humidity
    00:00 -9°C° 0.9 mm 13 mps 729 mmHg 94%
    01:00 -9°C° 0.9 mm 13 mps 729 mmHg 94%
    02:00 -8°C° 0.9 mm 12 mps 730 mmHg 94%
    03:00 -8°C° 1 mm 11 mps 730 mmHg 94%
    04:00 -8°C° 1 mm 11 mps 730 mmHg 94%
    05:00 -8°C° 1 mm 11 mps 730 mmHg 94%
    06:00 -8°C° 0.7 mm 10 mps 730 mmHg 94%
    07:00 -8°C° 0.7 mm 10 mps 730 mmHg 94%
    08:00 -8°C° 0.7 mm 10 mps 730 mmHg 94%
    09:00 -9°C° 0.5 mm 9 mps 730 mmHg 94%
    10:00 -8°C° 0.5 mm 8 mps 730 mmHg 94%
    11:00 -9°C° 0.5 mm 7 mps 730 mmHg 94%
    12:00 -10°C° 0.6 mm 8 mps 729 mmHg 94%
    13:00 -8°C° 0.6 mm 8 mps 729 mmHg 94%
    14:00 -9°C° 0.6 mm 9 mps 729 mmHg 94%
    15:00 -9°C° 0.4 mm 10 mps 730 mmHg 94%
    16:00 -10°C° 0.4 mm 10 mps 730 mmHg 93%
    17:00 -11°C° 0.4 mm 11 mps 730 mmHg 93%
    18:00 -11°C° 0.3 mm 11 mps 730 mmHg 93%
    19:00 -10°C° 0.3 mm 10 mps 730 mmHg 93%
    20:00 -12°C° 0.3 mm 10 mps 731 mmHg 93%
    21:00 -12°C° 0.3 mm 10 mps 731 mmHg 93%
    22:00 -12°C° 0.3 mm 10 mps 731 mmHg 93%
    23:00 -13°C° 0.3 mm 10 mps 731 mmHg 93%

    13 December, Friday

    Time Temperature Precipitation Wind Pressure Humidity
    00:00 -13°C° 0.3 mm 10 mps 731 mmHg 93%
    01:00 -12°C° 0.3 mm 9 mps 731 mmHg 93%
    02:00 -14°C° 0.3 mm 9 mps 731 mmHg 93%
    03:00 -14°C° 0.3 mm 9 mps 732 mmHg 93%
    04:00 -14°C° 0.3 mm 9 mps 732 mmHg 93%
    05:00 -13°C° 0.3 mm 8 mps 732 mmHg 93%
    06:00 -13°C° 0.2 mm 8 mps 732 mmHg 93%
    07:00 -15°C° 0.2 mm 8 mps 732 mmHg 93%
    08:00 -14°C° 0.2 mm 7 mps 732 mmHg 93%
    09:00 -14°C° 0.2 mm 7 mps 732 mmHg 93%
    10:00 -14°C° 0.2 mm 7 mps 733 mmHg 93%
    11:00 -15°C° 0.2 mm 7 mps 733 mmHg 93%
    12:00 -15°C° 0.2 mm 7 mps 733 mmHg 93%
    13:00 -15°C° 0.2 mm 7 mps 733 mmHg 93%
    14:00 -15°C° 0.2 mm 6 mps 733 mmHg 94%
    15:00 -16°C° 0.1 mm 6 mps 733 mmHg 94%
    16:00 -16°C° 0.1 mm 6 mps 733 mmHg 94%
    17:00 -16°C° 0.1 mm 6 mps 733 mmHg 94%
    18:00 -16°C° 0.1 mm 6 mps 733 mmHg 94%
    19:00 -17°C° 0.1 mm 6 mps 733 mmHg 94%
    20:00 -17°C° 0.1 mm 6 mps 734 mmHg 94%
    21:00 -17°C° 0.1 mm 6 mps 733 mmHg 94%
    22:00 -18°C° 0.1 mm 6 mps 733 mmHg 94%
    23:00 -18°C° 0.1 mm 6 mps 733 mmHg 94%
    Show more